Flag for New Zealand Weather past 2 weeks in Invercargill, New Zealand

Now
63 °F

Mild.


Feels Like: 63 °F
Forecast: 53 / 64 °F
Wind: 3 mph from East

Location: Christchurch Airport

Current Time: Dec 20, 2014 at 3:31:53 AM

Latest Report: Dec 20, 2014 at 3:00 AM


Visibility: N/A

Pressure: 29.77 "Hg

Humidity: 88%

Dew point: 59 °F

Location of InvercargillLocation

Historic Weather in Invercargill — Graph

°F

Invercargill temperature yesterday

Maximum temperature yesterday: 73 °F (at 11:00 AM)
Minimum temperature yesterday: 50 °F (at 2:30 AM)
Average temperature yesterday: 63 °F

Past Weeks' High & Low Weather Summary

 TemperatureHumidityPressure
High81 °F (Dec 7, 10:30 AM)100% (Dec 5, 3:00 AM)30.30 "Hg (Dec 5, 3:00 AM)
Low41 °F (Dec 14, 5:00 AM)34% (Dec 7, 10:30 AM)29.59 "Hg (Dec 10, 2:00 AM)
Average57 °F77%29.95 "Hg
* Reported Dec 5 2:00 AM — Dec 20 2:30 AM, Invercargill, Weather by CustomWeather, © 2014

Note: Actual official high and low records may vary slightly from our data, if they occured in-between our weather recording intervals... More about our weather records

Advertising

Invercargill weather history for previous 24 hours

 ConditionsComfort  
Time TempWeatherWind HumidityBarometerVisibility
2:30 AM
Dec 20
61 °FCool.1 mph94%29.80 "HgN/A
2:00 AM61 °FCool.7 mph94%29.80 "HgN/A
1:30 AM61 °FCool.9 mph94%29.80 "HgN/A
1:00 AM61 °FSprinkles. Overcast.9 mph94%29.83 "HgN/A
12:30 AM61 °FLight rain. Overcast.10 mph94%29.86 "HgN/A
12:00 AM63 °FPassing clouds.6 mph88%29.86 "HgN/A
11:30 PM
Dec 19
63 °FMild.7 mph88%29.86 "HgN/A
11:00 PM63 °FMild.8 mph88%29.86 "HgN/A
10:30 PM63 °FMild.9 mph83%29.86 "HgN/A
10:00 PM63 °FMild.8 mph83%29.86 "HgN/A
9:30 PM63 °FMild.8 mph83%29.83 "HgN/A
9:00 PM64 °FMild.9 mph78%29.83 "HgN/A
8:30 PM64 °FMild.10 mph78%29.83 "HgN/A
8:00 PM64 °FPassing clouds.10 mph78%29.83 "HgN/A
7:30 PM64 °FPartly sunny.12 mph78%29.83 "HgN/A
7:00 PM64 °FPassing clouds.12 mph78%29.83 "HgN/A
6:30 PM66 °FPassing clouds.14 mph73%29.83 "HgN/A
6:00 PM66 °FMild.15 mph73%29.83 "HgN/A
5:30 PM68 °FMild.15 mph69%29.83 "HgN/A
4:30 PM72 °FMild.15 mph57%29.86 "HgN/A
4:00 PM72 °FMild.14 mph57%29.86 "HgN/A
3:30 PM72 °FMild.15 mph57%29.86 "HgN/A
3:00 PM72 °FMild.15 mph57%29.83 "HgN/A
2:30 PM73 °FMild.14 mph57%29.86 "HgN/A
2:00 PM73 °FMild.16 mph53%29.86 "HgN/A
1:30 PM72 °FMild.14 mph57%29.86 "HgN/A
1:00 PM73 °FMild.13 mph53%29.86 "HgN/A
12:30 PM73 °FMild.12 mph53%29.86 "HgN/A
12:00 PM73 °FMild.10 mph53%29.86 "HgN/A
11:30 AM73 °FMild.10 mph57%29.89 "HgN/A
11:00 AM73 °FMild.6 mph53%29.89 "HgN/A
10:30 AM72 °FMild.3 mph57%29.89 "HgN/A
10:00 AM68 °FMild.3 mph64%29.92 "HgN/A
9:30 AM66 °FMild.3 mph68%29.92 "HgN/A
9:00 AM64 °FMild.3 mph73%29.92 "HgN/A
8:30 AM63 °FMild.5 mph77%29.89 "HgN/A
8:00 AM59 °FCool.3 mph88%29.89 "HgN/A
7:30 AM57 °FCool.5 mph88%29.89 "HgN/A
7:00 AM54 °FCool.6 mph94%29.89 "HgN/A
6:30 AM54 °FCool.5 mph94%29.89 "HgN/A
6:00 AM52 °FCool.5 mph94%29.89 "HgN/A
5:30 AM52 °FCool.5 mph94%29.89 "HgN/A
5:00 AM52 °FCool.5 mph94%29.86 "HgN/A
4:30 AM52 °FCool.5 mph100%29.86 "HgN/A
4:00 AM52 °FCool.3 mph100%29.86 "HgN/A
3:30 AM52 °FCool.3 mph100%29.86 "HgN/A
3:00 AM52 °FCool.2 mph94%29.86 "HgN/A
Weather by CustomWeather, © 2014

See weather overviewHow to use our weather pages